Weather in Kolokarevo

Russia / Yaroslavl Oblast     57°05′29″N   38°16′21″E
temp.,
°C
wind,
m/s
gust,
m/s
humid.,
%
clouds,
%
prec.,
mm/h
press.,
hPa
HPBL,
m
14 may, fri
fri1400:00+10s41188100 0.0 1016300
03:00+8sse3796100 0.0 1018165
06:00+10s37935 0.0 1018196
09:00+15s4567100 0.0 1017764
12:00+19s465574 0.0 10171620
15:00+21se465141 0.0 10151992
18:00+16sse488178 1.1 1014191
21:00+14se3796100 1.6 1013188
15 may, sat
sat1500:00+13ese4998100 3.1 1012265
03:00+13ese4797100 3.3 1011163
06:00+14se3109699 0.0 1010276
09:00+19sse51078100 0.3 1010643
12:00+22sse4764100 0.1 10091122
15:00+18sse61185100 2.3 1008653
18:00+20ssw5978100 1.1 1007675
21:00+15s410895 2.5 1008173
16 may, sun
sun1600:00+13s411950 0.0 1009287
03:00+12s410976 0.0 1009279
06:00+13s512930 0.0 1010491
09:00+17ssw797621 0.0 1010959
12:00+18ssw696998 0.4 10111494
15:00+19sw697176 1.7 10111165
18:00+17sw5108120 1.8 1012777
21:00+14ssw399335 2.3 1013167
17 may, mon
mon1700:00+12ssw37952 0.0 1014134
03:00+12ssw239690 0.0 101541
06:00+13s239488 0.0 1015104
09:00+17se2278100 0.0 1015373
12:00+22sse2358100 0.0 10151081
15:00+24ese4556100 0.0 10131498
18:00+22e58715 0.0 1012613
21:00+17e5139195 1.0 1011258
18 may, tue
tue1800:00+16ese4129375 0.1 1011235
03:00+14ese4119229 0.1 1010199
06:00+15se5138871 0.0 1009302
09:00+21s57708 0.0 1009592
12:00+24s35609 0.0 10091199
15:00+26se595281 0.0 10081714
18:00+23se51060100 0.0 1006368
21:00+17s61094100 3.3 1007512